Regional Weather Roundup
Issued by NWS

Home | Current Version | Previous Version | Graphics & Text | Print | Product List | Glossary On
Versions: 1 2 3 4 5 6 7 8 9 10 11 12 13 14 15 16 17 18 19 20 21 22 23 24 25 26 27 28 29 30 31 32 33 34 35 36 37 38 39 40 41 42 43 44 45 46 47 48 49 50
000
ASUS45 KSLC 311810
RWRUT

UTAH REGIONAL WEATHER ROUNDUP
NATIONAL WEATHER SERVICE SALT LAKE CITY UT
1200 PM MDT SUN AUG 31 2014

UTZ001>011-023>025-311900-

NORTHERN UTAH

CITY           SKY/WX    TMP DP  RH WIND       PRES   REMARKS
HILL AFB       SUNNY     68  44  40 W9        30.06S
LOGAN          SUNNY     66  44  45 N8        30.05S
OGDEN          MOSUNNY   70  41  34 W8        30.04S
PROVO AIRPORT  MOSUNNY   70  45  40 NW9       30.07R
SALT LAKE CITY MOSUNNY   72  42  34 VRB5      30.04R
VERNAL         SUNNY     69  45  41 VRB6      30.00S
WENDOVER       SUNNY     72  39  30 SE13      30.06S
HEBER CITY     MOSUNNY   70  43  37 NW3       30.07R
WEST JORDAN    SUNNY     72  50  46 N9G17     30.07R

$$

UTZ012>022-026-027-311900-

SOUTHERN UTAH

CITY           SKY/WX    TMP DP  RH WIND       PRES   REMARKS
BRYCE CANYON   SUNNY     73  35  25 NW13G21   30.19S
CEDAR CITY     SUNNY     80  32  17 VRB7      30.08S
MILFORD        SUNNY     77  41  27 N16G22    30.06S
MOAB/CYNLANDS  SUNNY     86  30  13 NW13G20   29.90S
PRICE          SUNNY     77  34  21 N12G18    30.04S
ST GEORGE      CLEAR     90  41  18 NW7       29.90F

$$

REGIONAL REPORTS     COLORADO/ARIZONA

CITY           SKY/WX    TMP DP  RH WIND       PRES   REMARKS
CRAIG, CO      PTSUNNY   62  46  55 NE9       30.08F
GRAND JUNCTION MOSUNNY   80  42  25 NW7       29.92F
RIFLE          PTSUNNY   73  45  36 CALM      29.97F
MONTROSE       MOSUNNY   79  35  20 W14       30.02F
CORTEZ         SUNNY     82  35  18 SW17G26   30.09F
PAGE, AZ       SUNNY     90  36  14 NE6       29.96F
GRAND CANYON   SUNNY     77  37  23 SW22G30   30.21R
KINGMAN        SUNNY     93  37  14 SW15G25   29.96S
FLAGSTAFF      SUNNY     74  33  22 W22G33    30.24S

$$

REGIONAL REPORTS    NEVADA/IDAHO/WYOMING

CITY           SKY/WX    TMP DP  RH WIND       PRES   REMARKS
LAS VEGAS, NV  MOSUNNY   95  28   9 SW3       29.80F
ELY            SUNNY     69  33  26 CALM      30.15S
ELKO           SUNNY     70  38  31 W10G17    30.09F
POCATELLO, ID  PTSUNNY   62  45  53 SW16G26   30.07S
BURLEY         SUNNY     63  44  50 W14G25    30.06S
EVANSTON, WY   SUNNY     61  38  42 W20G26    30.12R
ROCK SPRINGS   PTSUNNY   59  43  55 W24G30    30.06S

$$


USA.gov is the U.S. government's official web portal to all federal, state and local government web resources and services.